When you browse on this site, cookies collect data to enhance your experience and personalize the content and advertising you see.
Visit our Privacy Policy to learn more. By continuing to use the site, you agree to this use of cookies and data.
  • En España
  • Lista de países
  • Para 7 días
  • Temperatura del agua
  • El tiempo en el mapa
  • Informadores
  • user-avatar
    Iniciar sesión

    Tiempo cada hora Krolevec

    Hoy, 4 Junio, Jueves

    Tiempo Temperatura Precipitaciones Viento Presión Humedad
    00:00 +10°C° 0.4 mm 2 mps 739 mmHg 90%
    01:00 +10°C° 0.4 mm 3 mps 739 mmHg 93%
    02:00 +10°C° 0.4 mm 3 mps 738 mmHg 96%
    03:00 +10°C° 1.4 mm 3 mps 738 mmHg 96%
    04:00 +10°C° 1.4 mm 2 mps 738 mmHg 97%
    05:00 +10°C° 1.4 mm 2 mps 738 mmHg 97%
    06:00 +10°C° 0.6 mm 2 mps 738 mmHg 95%
    07:00 +12°C° 0.6 mm 2 mps 738 mmHg 94%
    08:00 +12°C° 0.6 mm 2 mps 739 mmHg 92%
    09:00 +13°C° 0.5 mm 3 mps 739 mmHg 87%
    10:00 +14°C° 0.5 mm 4 mps 739 mmHg 82%
    11:00 +15°C° 0.5 mm 5 mps 739 mmHg 77%
    12:00 +16°C° 0.2 mm 5 mps 739 mmHg 74%
    13:00 +16°C° 0.2 mm 5 mps 739 mmHg 71%
    14:00 +17°C° 0.2 mm 5 mps 739 mmHg 67%
    15:00 +16°C° 0.2 mm 5 mps 739 mmHg 71%
    16:00 +16°C° 0.2 mm 5 mps 739 mmHg 75%
    17:00 +17°C° 0.2 mm 4 mps 739 mmHg 78%
    18:00 +15°C° 0.8 mm 4 mps 739 mmHg 82%
    19:00 +13°C° 0.8 mm 4 mps 739 mmHg 85%
    20:00 +12°C° 0.8 mm 4 mps 739 mmHg 89%
    21:00 +12°C° 0.1 mm 3 mps 739 mmHg 91%
    22:00 +11°C° 0.1 mm 3 mps 739 mmHg 92%
    23:00 +10°C° 0.1 mm 3 mps 740 mmHg 94%

    Mañana, 5 Junio, Viernes

    Tiempo Temperatura Precipitaciones Viento Presión Humedad
    00:00 +10°C° 0 mm 4 mps 740 mmHg 94%
    01:00 +10°C° 0 mm 4 mps 740 mmHg 95%
    02:00 +10°C° 0 mm 4 mps 740 mmHg 95%
    03:00 +10°C° 0.3 mm 5 mps 739 mmHg 95%
    04:00 +10°C° 0.3 mm 5 mps 739 mmHg 95%
    05:00 +10°C° 0.3 mm 5 mps 739 mmHg 96%
    06:00 +12°C° 1.4 mm 5 mps 739 mmHg 96%
    07:00 +12°C° 1.4 mm 5 mps 739 mmHg 96%
    08:00 +12°C° 1.4 mm 5 mps 740 mmHg 96%
    09:00 +13°C° 0.5 mm 5 mps 740 mmHg 94%
    10:00 +14°C° 0.5 mm 5 mps 740 mmHg 92%
    11:00 +15°C° 0.5 mm 5 mps 740 mmHg 90%
    12:00 +16°C° 0.3 mm 5 mps 740 mmHg 87%
    13:00 +19°C° 0.3 mm 5 mps 740 mmHg 84%
    14:00 +20°C° 0.3 mm 5 mps 740 mmHg 80%
    15:00 +20°C° 0.4 mm 5 mps 740 mmHg 82%
    16:00 +20°C° 0.4 mm 5 mps 740 mmHg 84%
    17:00 +20°C° 0.4 mm 5 mps 740 mmHg 86%
    18:00 +19°C° 0.2 mm 4 mps 741 mmHg 88%
    19:00 +18°C° 0.2 mm 3 mps 741 mmHg 91%
    20:00 +16°C° 0.2 mm 3 mps 741 mmHg 94%
    21:00 +16°C° 0 mm 2 mps 741 mmHg 93%
    22:00 +16°C° 0 mm 2 mps 741 mmHg 93%
    23:00 +15°C° 0 mm 2 mps 742 mmHg 93%

    Pasado mañana, 6 Junio, Sábado

    Tiempo Temperatura Precipitaciones Viento Presión Humedad
    00:00 +15°C° 0 mm 2 mps 742 mmHg 93%
    01:00 +14°C° 0 mm 3 mps 742 mmHg 94%
    02:00 +14°C° 0 mm 3 mps 742 mmHg 94%
    03:00 +14°C° 0 mm 3 mps 742 mmHg 95%
    04:00 +14°C° 0 mm 3 mps 743 mmHg 95%
    05:00 +14°C° 0 mm 4 mps 743 mmHg 96%
    06:00 +17°C° 0 mm 4 mps 743 mmHg 94%
    07:00 +18°C° 0 mm 4 mps 743 mmHg 91%
    08:00 +19°C° 0 mm 4 mps 744 mmHg 89%
    09:00 +20°C° 0 mm 5 mps 744 mmHg 86%
    10:00 +22°C° 0 mm 5 mps 744 mmHg 83%
    11:00 +23°C° 0 mm 6 mps 744 mmHg 80%
    12:00 +24°C° 0.2 mm 6 mps 744 mmHg 79%
    13:00 +24°C° 0.2 mm 6 mps 745 mmHg 78%
    14:00 +26°C° 0.2 mm 6 mps 745 mmHg 77%
    15:00 +25°C° 0.2 mm 5 mps 745 mmHg 78%
    16:00 +25°C° 0.2 mm 5 mps 745 mmHg 79%
    17:00 +23°C° 0.2 mm 4 mps 745 mmHg 80%
    18:00 +22°C° 0 mm 4 mps 745 mmHg 83%
    19:00 +21°C° 0 mm 3 mps 745 mmHg 86%
    20:00 +19°C° 0 mm 3 mps 745 mmHg 90%
    21:00 +19°C° 0 mm 3 mps 745 mmHg 91%
    22:00 +18°C° 0 mm 3 mps 746 mmHg 91%
    23:00 +17°C° 0 mm 3 mps 746 mmHg 92%

    7 Junio, Domingo

    Tiempo Temperatura Precipitaciones Viento Presión Humedad
    00:00 +17°C° 0 mm 3 mps 746 mmHg 92%
    01:00 +16°C° 0 mm 3 mps 746 mmHg 92%
    02:00 +16°C° 0 mm 3 mps 746 mmHg 91%
    03:00 +16°C° 0 mm 3 mps 746 mmHg 92%
    04:00 +16°C° 0 mm 3 mps 747 mmHg 92%
    05:00 +16°C° 0 mm 3 mps 747 mmHg 92%
    06:00 +17°C° 0 mm 3 mps 747 mmHg 89%
    07:00 +19°C° 0 mm 3 mps 747 mmHg 85%
    08:00 +21°C° 0 mm 3 mps 748 mmHg 82%
    09:00 +22°C° 0 mm 3 mps 748 mmHg 78%
    10:00 +23°C° 0 mm 4 mps 748 mmHg 75%
    11:00 +25°C° 0 mm 4 mps 748 mmHg 71%
    12:00 +26°C° 0 mm 4 mps 748 mmHg 70%
    13:00 +26°C° 0 mm 4 mps 748 mmHg 69%
    14:00 +26°C° 0 mm 4 mps 748 mmHg 68%
    15:00 +26°C° 0 mm 4 mps 748 mmHg 71%
    16:00 +26°C° 0 mm 3 mps 748 mmHg 74%
    17:00 +25°C° 0 mm 3 mps 747 mmHg 77%
    18:00 +24°C° 0 mm 3 mps 747 mmHg 81%
    19:00 +21°C° 0 mm 3 mps 747 mmHg 85%
    20:00 +20°C° 0 mm 2 mps 747 mmHg 89%
    21:00 +19°C° 0 mm 2 mps 748 mmHg 91%
    22:00 +19°C° 0 mm 3 mps 748 mmHg 92%
    23:00 +18°C° 0 mm 3 mps 748 mmHg 93%

    8 Junio, Lunes

    Tiempo Temperatura Precipitaciones Viento Presión Humedad
    00:00 +18°C° 0 mm 3 mps 748 mmHg 93%
    01:00 +18°C° 0 mm 3 mps 748 mmHg 93%
    02:00 +17°C° 0 mm 3 mps 747 mmHg 94%
    03:00 +18°C° 0 mm 3 mps 747 mmHg 93%
    04:00 +18°C° 0 mm 3 mps 747 mmHg 93%
    05:00 +18°C° 0 mm 3 mps 747 mmHg 92%
    06:00 +19°C° 0 mm 4 mps 747 mmHg 88%
    07:00 +21°C° 0 mm 4 mps 747 mmHg 84%
    08:00 +23°C° 0 mm 5 mps 747 mmHg 79%
    09:00 +25°C° 0 mm 5 mps 747 mmHg 76%
    10:00 +26°C° 0 mm 6 mps 747 mmHg 72%
    11:00 +27°C° 0 mm 6 mps 747 mmHg 69%
    12:00 +27°C° 0 mm 6 mps 747 mmHg 68%
    13:00 +28°C° 0 mm 6 mps 747 mmHg 67%
    14:00 +28°C° 0 mm 6 mps 747 mmHg 66%
    15:00 +28°C° 0 mm 5 mps 746 mmHg 69%
    16:00 +27°C° 0 mm 5 mps 746 mmHg 73%
    17:00 +27°C° 0 mm 4 mps 746 mmHg 77%
    18:00 +26°C° 0 mm 4 mps 746 mmHg 79%
    19:00 +23°C° 0 mm 4 mps 746 mmHg 82%
    20:00 +22°C° 0 mm 4 mps 746 mmHg 84%
    21:00 +21°C° 0 mm 4 mps 746 mmHg 85%
    22:00 +20°C° 0 mm 4 mps 746 mmHg 86%
    23:00 +20°C° 0 mm 4 mps 746 mmHg 87%

    9 Junio, Martes

    Tiempo Temperatura Precipitaciones Viento Presión Humedad
    00:00 +20°C° 0 mm 4 mps 746 mmHg 87%
    01:00 +19°C° 0 mm 4 mps 746 mmHg 87%
    02:00 +19°C° 0 mm 4 mps 746 mmHg 87%
    03:00 +19°C° 0 mm 4 mps 746 mmHg 88%
    04:00 +19°C° 0 mm 4 mps 746 mmHg 89%
    05:00 +19°C° 0 mm 4 mps 746 mmHg 90%
    06:00 +20°C° 0 mm 4 mps 747 mmHg 86%
    07:00 +22°C° 0 mm 4 mps 747 mmHg 83%
    08:00 +25°C° 0 mm 5 mps 747 mmHg 79%
    09:00 +26°C° 0.1 mm 5 mps 747 mmHg 75%
    10:00 +27°C° 0.1 mm 5 mps 747 mmHg 71%
    11:00 +28°C° 0.1 mm 6 mps 747 mmHg 67%
    12:00 +28°C° 0 mm 6 mps 747 mmHg 66%
    13:00 +29°C° 0 mm 6 mps 747 mmHg 66%
    14:00 +29°C° 0 mm 6 mps 746 mmHg 65%
    15:00 +29°C° 0.3 mm 5 mps 746 mmHg 69%
    16:00 +28°C° 0.3 mm 4 mps 746 mmHg 73%
    17:00 +28°C° 0.3 mm 3 mps 746 mmHg 78%
    18:00 +26°C° 0.2 mm 3 mps 746 mmHg 81%
    19:00 +25°C° 0.2 mm 3 mps 746 mmHg 85%
    20:00 +22°C° 0.2 mm 3 mps 746 mmHg 88%
    21:00 +22°C° 0 mm 4 mps 746 mmHg 89%
    22:00 +21°C° 0 mm 4 mps 746 mmHg 89%
    23:00 +20°C° 0 mm 4 mps 746 mmHg 90%
    Mostrar más